Muscatine, IA

9:43 PM CDT on May 22, 2017 (GMT -0500)
Muscatine Municipal

Weather History for KMUT - April, 2014

Change the Weather History Date:

Wednesday, April 30, 2014

  Actual Average Record
Temperature  
Mean Temperature 44 °F -  
Max Temperature 48 °F 69 °F 88 °F (1952)
Min Temperature 39 °F 46 °F 30 °F (1956)
Degree Days  
Heating Degree Days 22    
Moisture  
Dew Point 37 °F    
Average Humidity 78    
Maximum Humidity 93    
Minimum Humidity 62    
Precipitation  
Precipitation 0.00 in - - ()
Sea Level Pressure  
Sea Level Pressure 29.76 in    
Wind  
Wind Speed 13 mph (West)    
Max Wind Speed 20 mph    
Max Gust Speed 25 mph    
Visibility 10 miles    
Events Rain    
Averages and records for this station are not official NWS values.
T = Trace of Precipitation, MM = Missing Value Source: NWS Daily Summary

Daily Weather History Graph

Daily Weather History Graph

Search for Another Location

Airport or City:

Trip Planner

Search our weather history database for the weather conditions in past years. The results will help you decide how hot, cold, wet, or windy it might be!

Date:

Astronomy

Apr. 30, 2014 Rise Set
Actual Time 6:03 AM CDT 8:01 PM CDT
Civil Twilight 5:33 AM CDT 8:31 PM CDT
Nautical Twilight 4:56 AM CDT 9:07 PM CDT
Astronomical Twilight 4:17 AM CDT 9:47 PM CDT
Moon 7:04 AM CDT (4/30) 9:40 PM CDT (4/30)
Length of Visible Light 14h 57m
Length of Day
13h 57m
New Moon, 2% of the Moon is Illuminated
Apr 30
New Moon
May 6
First Quarter
May 14
Full
May 21
Last Quarter
May 28
New

Hourly Weather History & Observations

Time (CDT) Temp. Windchill Dew Point Humidity Pressure Visibility Wind Dir Wind Speed Gust Speed Precip Events Conditions
12:15 AM 44.6 °F 39.2 °F 41.0 °F 87% 29.68 in 10.0 mi WNW 10.4 mph 20.7 mph N/A   Overcast
12:35 AM 44.6 °F 37.8 °F 41.0 °F 87% 29.69 in 10.0 mi WNW 15.0 mph 20.7 mph N/A   Overcast
12:55 AM 42.8 °F 35.4 °F 41.0 °F 93% 29.69 in 10.0 mi WNW 15.0 mph - N/A   Overcast
1:15 AM 42.8 °F 35.8 °F 39.2 °F 87% 29.70 in 10.0 mi West 13.8 mph 19.6 mph N/A   Overcast
1:35 AM 41.0 °F 33.5 °F 37.4 °F 87% 29.70 in 10.0 mi WNW 13.8 mph - N/A   Overcast
1:55 AM 41.0 °F 34.7 °F 37.4 °F 87% 29.70 in 10.0 mi West 10.4 mph - N/A   Overcast
2:15 AM 41.0 °F 34.7 °F 39.2 °F 93% 29.70 in 3.0 mi West 10.4 mph - N/A   Overcast
2:35 AM 41.0 °F 33.1 °F 37.4 °F 87% 29.70 in 10.0 mi West 15.0 mph - N/A   Overcast
2:55 AM 41.0 °F 33.5 °F 37.4 °F 87% 29.71 in 10.0 mi West 13.8 mph - N/A   Overcast
3:15 AM 41.0 °F 33.5 °F 37.4 °F 87% 29.71 in 10.0 mi West 13.8 mph - N/A   Overcast
3:35 AM 41.0 °F 33.9 °F 35.6 °F 81% 29.71 in 10.0 mi West 12.7 mph 19.6 mph N/A   Overcast
3:55 AM 41.0 °F 34.3 °F 35.6 °F 81% 29.72 in 10.0 mi West 11.5 mph - N/A   Overcast
4:15 AM 41.0 °F 34.7 °F 35.6 °F 81% 29.72 in 10.0 mi West 10.4 mph - N/A   Overcast
4:35 AM 41.0 °F 33.5 °F 35.6 °F 81% 29.72 in 10.0 mi West 13.8 mph - N/A   Overcast
4:55 AM 41.0 °F 33.9 °F 35.6 °F 81% 29.72 in 10.0 mi West 12.7 mph - N/A   Overcast
5:15 AM 39.2 °F 30.8 °F 35.6 °F 87% 29.73 in 10.0 mi West 15.0 mph - N/A   Overcast
5:35 AM 39.2 °F 31.6 °F 35.6 °F 87% 29.74 in 10.0 mi West 12.7 mph - N/A   Overcast
5:55 AM 39.2 °F 31.6 °F 35.6 °F 87% 29.74 in 10.0 mi West 12.7 mph - N/A   Overcast
6:15 AM 39.2 °F 32.0 °F 35.6 °F 87% 29.75 in 10.0 mi West 11.5 mph - N/A   Overcast
6:35 AM 39.2 °F 32.0 °F 33.8 °F 81% 29.75 in 10.0 mi WNW 11.5 mph - N/A   Overcast
6:55 AM 39.2 °F 32.5 °F 33.8 °F 81% 29.76 in 10.0 mi West 10.4 mph - N/A   Overcast
7:15 AM 39.2 °F 31.6 °F 33.8 °F 81% 29.76 in 10.0 mi West 12.7 mph 18.4 mph N/A   Overcast
7:35 AM 41.0 °F 35.2 °F 33.8 °F 76% 29.76 in 10.0 mi West 9.2 mph - N/A   Overcast
7:55 AM 41.0 °F 34.7 °F 33.8 °F 76% 29.76 in 10.0 mi West 10.4 mph - N/A   Overcast
8:15 AM 41.0 °F 33.5 °F 33.8 °F 76% 29.76 in 10.0 mi West 13.8 mph - N/A   Overcast
8:35 AM 41.0 °F 33.1 °F 33.8 °F 76% 29.76 in 10.0 mi West 15.0 mph - N/A   Overcast
8:55 AM 41.0 °F 33.9 °F 33.8 °F 76% 29.76 in 10.0 mi West 12.7 mph - N/A   Overcast
9:15 AM 41.0 °F 33.9 °F 33.8 °F 76% 29.76 in 10.0 mi West 12.7 mph - N/A   Overcast
9:35 AM 41.0 °F 33.9 °F 33.8 °F 76% 29.76 in 10.0 mi West 12.7 mph - N/A   Overcast
9:55 AM 42.8 °F 35.4 °F 33.8 °F 70% 29.76 in 10.0 mi West 15.0 mph 23.0 mph N/A   Overcast
10:15 AM 42.8 °F 36.6 °F 33.8 °F 70% 29.76 in 10.0 mi West 11.5 mph - N/A   Overcast
10:35 AM 42.8 °F 35.8 °F 33.8 °F 70% 29.76 in 10.0 mi West 13.8 mph - N/A   Overcast
10:55 AM 44.6 °F 37.8 °F 35.6 °F 71% 29.78 in 10.0 mi WSW 15.0 mph - N/A   Overcast
11:15 AM 44.6 °F 37.4 °F 33.8 °F 66% 29.78 in 10.0 mi West 16.1 mph - N/A   Overcast
11:35 AM 44.6 °F 38.8 °F 35.6 °F 71% 29.78 in 10.0 mi West 11.5 mph - N/A   Overcast
11:55 AM 44.6 °F 38.4 °F 35.6 °F 71% 29.78 in 10.0 mi WSW 12.7 mph 18.4 mph N/A   Overcast
12:15 PM 46.4 °F 40.1 °F 35.6 °F 66% 29.78 in 10.0 mi West 15.0 mph - N/A   Overcast
12:35 PM 44.6 °F 38.1 °F 37.4 °F 76% 29.78 in 10.0 mi West 13.8 mph 24.2 mph N/A   Overcast
12:55 PM 46.4 °F 40.1 °F 37.4 °F 71% 29.78 in 9.0 mi West 15.0 mph - N/A   Overcast
1:15 PM 48.2 °F - 37.4 °F 66% 29.78 in 10.0 mi West 16.1 mph - N/A   Overcast
1:35 PM 46.4 °F 40.7 °F 37.4 °F 71% 29.77 in 10.0 mi West 12.7 mph 19.6 mph N/A   Overcast
1:55 PM 46.4 °F 39.5 °F 39.2 °F 76% 29.79 in 7.0 mi WSW 17.3 mph - N/A   Overcast
2:15 PM 48.2 °F - 39.2 °F 71% 29.78 in 10.0 mi WSW 11.5 mph 18.4 mph N/A   Overcast
2:55 PM 48.2 °F - 37.4 °F 66% 29.79 in 10.0 mi WNW 16.1 mph - N/A   Overcast
3:15 PM 48.2 °F - 37.4 °F 66% 29.79 in 10.0 mi West 15.0 mph 23.0 mph N/A   Overcast
3:35 PM 48.2 °F - 37.4 °F 66% 29.79 in 10.0 mi West 15.0 mph - N/A   Overcast
3:55 PM 48.2 °F - 35.6 °F 62% 29.79 in 10.0 mi West 17.3 mph - N/A   Overcast
4:15 PM 48.2 °F - 37.4 °F 66% 29.78 in 10.0 mi West 17.3 mph 24.2 mph N/A   Overcast
4:35 PM 48.2 °F - 37.4 °F 66% 29.79 in 10.0 mi WNW 16.1 mph - N/A   Overcast
4:55 PM 48.2 °F - 37.4 °F 66% 29.79 in 10.0 mi West 16.1 mph - N/A   Overcast
5:15 PM 48.2 °F - 37.4 °F 66% 29.79 in 10.0 mi West 16.1 mph - N/A   Overcast
5:35 PM 46.4 °F 39.8 °F 39.2 °F 76% 29.79 in 7.0 mi West 16.1 mph 23.0 mph N/A   Mostly Cloudy
5:55 PM 46.4 °F 40.4 °F 39.2 °F 76% 29.79 in 10.0 mi West 13.8 mph - N/A   Overcast
6:15 PM 46.4 °F 40.4 °F 37.4 °F 71% 29.79 in 5.0 mi West 13.8 mph 25.3 mph N/A Rain Light Rain
6:35 PM 46.4 °F 39.5 °F 37.4 °F 71% 29.79 in 10.0 mi West 17.3 mph - N/A   Overcast
7:15 PM 44.6 °F 36.6 °F 37.4 °F 76% 29.80 in 10.0 mi West 19.6 mph - N/A   Mostly Cloudy
7:35 PM 44.6 °F 37.8 °F 37.4 °F 76% 29.80 in 10.0 mi West 15.0 mph - N/A   Overcast
7:55 PM 44.6 °F 37.8 °F 37.4 °F 76% 29.80 in 10.0 mi West 15.0 mph 23.0 mph N/A   Overcast
8:15 PM 44.6 °F 37.8 °F 37.4 °F 76% 29.80 in 10.0 mi West 15.0 mph 20.7 mph N/A   Overcast
8:35 PM 42.8 °F 36.2 °F 37.4 °F 81% 29.80 in 10.0 mi West 12.7 mph 20.7 mph N/A   Overcast
8:55 PM 42.8 °F 36.2 °F 39.2 °F 87% 29.80 in 10.0 mi WSW 12.7 mph - N/A   Overcast
9:15 PM 42.8 °F 35.8 °F 39.2 °F 87% 29.80 in 9.0 mi WSW 13.8 mph - N/A   Overcast
9:35 PM 42.8 °F 35.4 °F 39.2 °F 87% 29.80 in 10.0 mi WSW 15.0 mph - N/A   Overcast
9:55 PM 42.8 °F 36.6 °F 39.2 °F 87% 29.80 in 10.0 mi WSW 11.5 mph - N/A   Overcast
10:15 PM 42.8 °F 36.6 °F 39.2 °F 87% 29.80 in 10.0 mi WSW 11.5 mph - N/A   Mostly Cloudy
10:35 PM 42.8 °F 36.2 °F 39.2 °F 87% 29.80 in 10.0 mi WSW 12.7 mph - N/A   Overcast
10:55 PM 42.8 °F 35.4 °F 39.2 °F 87% 29.79 in 10.0 mi West 15.0 mph - N/A   Overcast
11:15 PM 42.8 °F 36.2 °F 39.2 °F 87% 29.79 in 10.0 mi WSW 12.7 mph - N/A   Overcast
11:35 PM 42.8 °F 36.2 °F 39.2 °F 87% 29.78 in 9.0 mi West 12.7 mph 19.6 mph N/A   Overcast